Hourly Data Report for June 04, 2021

WRIGLEY A
NORTHWEST TERRITORIES
Current Station Operator: NAVCAN

63°12'35.000" N
123°26'12.000" W
149.70 m
2204005
YWY

Download Data

Hourly Data (June 2021)
Hourly Data Report for June 4, 2021
TIME
LST
Temp Definition
°C
Dew Point Definition
°C
Rel Hum Definition
%
Precip. Amount Definition
mm

Wind Dir Definition
10's deg

Wind Spd Definition
km/h
Visibility Definition
km
Stn Press Definition
kPa
Hmdx Definition


Wind Chill Definition


Weather Definition


00:00 10.4 9.0 91 LegendMM 32 7 LegendMM 98.06     LegendNANA
01:00 11.3 9.4 88 LegendMM 31 11 LegendMM 98.07     LegendNANA
02:00 8.9 8.3 96 LegendMM 6 4 LegendMM 98.09     LegendNANA
03:00 9.9 9.1 95 LegendMM 22 3 LegendMM 98.11     LegendNANA
04:00 9.7 8.8 95 LegendMM 30 5 LegendMM 98.12     LegendNANA
05:00 9.7 8.4 92 LegendMM 36 4 LegendMM 98.15     LegendNANA
06:00 10.0 8.7 91 LegendMM 1 3 LegendMM 98.15     LegendNANA
07:00 11.4 9.5 88 LegendMM 29 7 LegendMM 98.12     LegendNANA
08:00 12.9 9.5 80 LegendMM 30 8 LegendMM 98.10     LegendNANA
09:00 13.9 9.0 72 LegendMM 29 9 LegendMM 98.07     LegendNANA
10:00 14.9 7.9 63 LegendMM 26 7 LegendMM 98.06     LegendNANA
11:00 17.0 6.9 51 LegendMM 25 9 LegendMM 98.00     LegendNANA
12:00 18.5 4.8 40 LegendMM 35 6 LegendMM 97.95     LegendNANA
13:00 19.4 2.0 31 LegendMM 30 10 LegendMM 97.90     LegendNANA
14:00 20.4 -0.1 25 LegendMM 30 10 LegendMM 97.87     LegendNANA
15:00 20.4 0.2 26 LegendMM 20 9 LegendMM 97.84     LegendNANA
16:00 20.1 0.9 27 LegendMM 11 2 LegendMM 97.82     LegendNANA
17:00 21.0 -0.4 24 LegendMM 25 8 LegendMM 97.79     LegendNANA
18:00 20.5 -0.3 25 LegendMM 24 4 LegendMM 97.77     LegendNANA
19:00 20.9 -0.7 23 LegendMM 28 6 LegendMM 97.76     LegendNANA
20:00 19.6 2.5 32 LegendMM 35 3 LegendMM 97.77     LegendNANA
21:00 18.3 5.1 41 LegendMM 18 1 LegendMM 97.80     LegendNANA
22:00 17.3 4.1 41 LegendMM 3 5 LegendMM 97.82     LegendNANA
23:00 15.0 5.6 53 LegendMM 31 12 LegendMM 97.88     LegendNANA

Notes on Data Quality.

Legend

  • E = Estimated
  • M = Missing
  • NA = Not Available*
  • [empty] = Indicates an unobserved value
Date modified: